Total_Precipitation_Accumulation
0.02 0.01 0.02 0.02 0.03 0.06 0.06 0.05 0.06 0.08 0.09 0.09 0.08 0.08 0.08 0.09 0.10 0.08 0.07 0.07 0.11 0.20 0.26 0.28 0.28 0.31 0.31 0.29 0.24 0.17 0.13 0.09 0.08 0.08 0.09 0.10 0.13 0.16 0.18 0.14 0.12 0.10 0.05
0.02 0.01 0.01 0.02 0.03 0.05 0.05 0.07 0.07 0.07 0.07 0.07 0.07 0.07 0.07 0.08 0.09 0.11 0.09 0.10 0.15 0.21 0.23 0.24 0.25 0.25 0.23 0.19 0.15 0.10 0.07 0.06 0.07 0.09 0.12 0.18 0.29 0.32 0.30 0.24 0.23 0.17 0.05
0.02 0.00 0.01 0.02 0.03 0.03 0.05 0.07 0.08 0.08 0.07 0.07 0.08 0.08 0.09 0.09 0.10 0.11 0.12 0.13 0.19 0.21 0.19 0.18 0.19 0.17 0.14 0.08 0.05 0.04 0.04 0.06 0.09 0.14 0.30 0.43 0.53 0.42 0.31 0.26 0.25 0.17 0.08
0.01 0.00 0.00 0.01 0.02 0.03 0.03 0.04 0.07 0.08 0.09 0.10 0.12 0.11 0.10 0.10 0.10 0.10 0.12 0.13 0.16 0.17 0.15 0.13 0.12 0.09 0.05 0.03 0.03 0.03 0.03 0.06 0.13 0.27 0.54 0.60 0.75 0.62 0.38 0.27 0.26 0.25 0.21
0.02 0.01 0.01 0.01 0.02 0.02 0.02 0.03 0.07 0.09 0.10 0.11 0.13 0.14 0.11 0.09 0.08 0.10 0.15 0.18 0.20 0.19 0.20 0.19 0.15 0.08 0.04 0.03 0.03 0.03 0.04 0.08 0.16 0.35 0.66 0.88 0.97 0.81 0.49 0.33 0.32 0.34 0.35
0.01 0.01 0.01 0.02 0.02 0.02 0.03 0.03 0.07 0.12 0.13 0.12 0.13 0.14 0.14 0.11 0.09 0.14 0.21 0.24 0.24 0.23 0.27 0.32 0.26 0.16 0.08 0.05 0.04 0.04 0.06 0.11 0.18 0.40 0.88 1.19 1.01 0.74 0.47 0.33 0.29 0.37 0.44
0.01 0.00 0.01 0.02 0.03 0.03 0.03 0.06 0.11 0.13 0.15 0.17 0.15 0.15 0.17 0.11 0.09 0.14 0.23 0.28 0.28 0.27 0.27 0.24 0.18 0.13 0.10 0.06 0.06 0.05 0.06 0.10 0.20 0.44 0.82 1.08 0.86 0.55 0.39 0.32 0.29 0.30 0.34
0.02 0.01 0.01 0.02 0.03 0.05 0.07 0.10 0.14 0.13 0.14 0.15 0.15 0.15 0.15 0.10 0.09 0.13 0.22 0.29 0.34 0.30 0.22 0.16 0.12 0.09 0.08 0.07 0.06 0.05 0.07 0.09 0.15 0.33 0.64 0.73 0.58 0.40 0.31 0.29 0.28 0.25 0.25
0.07 0.05 0.03 0.02 0.02 0.06 0.10 0.11 0.13 0.13 0.12 0.12 0.10 0.10 0.12 0.11 0.09 0.13 0.19 0.24 0.23 0.16 0.13 0.11 0.09 0.07 0.05 0.03 0.03 0.04 0.06 0.08 0.12 0.22 0.47 0.60 0.50 0.34 0.26 0.21 0.19 0.19 0.20
0.35 0.56 0.34 0.08 0.03 0.03 0.03 0.09 0.12 0.13 0.11 0.09 0.06 0.06 0.07 0.08 0.10 0.13 0.16 0.14 0.10 0.05 0.03 0.03 0.03 0.02 0.02 0.01 0.02 0.02 0.03 0.04 0.07 0.16 0.36 0.50 0.44 0.31 0.27 0.22 0.17 0.15 0.15
0.59 0.79 0.36 0.13 0.05 0.04 0.04 0.05 0.07 0.08 0.10 0.07 0.05 0.06 0.07 0.14 0.19 0.20 0.13 0.11 0.06 0.03 0.01 0.01 0.01 0.01 0.01 0.01 0.01 0.02 0.02 0.02 0.07 0.15 0.25 0.35 0.38 0.33 0.30 0.26 0.21 0.17 0.14
0.43 0.34 0.22 0.15 0.08 0.05 0.05 0.06 0.07 0.06 0.06 0.05 0.10 0.07 0.14 0.30 0.34 0.25 0.16 0.10 0.06 0.04 0.03 0.03 0.04 0.03 0.03 0.02 0.03 0.03 0.04 0.06 0.09 0.13 0.16 0.16 0.24 0.29 0.31 0.31 0.23 0.18 0.16
0.44 0.20 0.14 0.12 0.12 0.10 0.10 0.11 0.12 0.15 0.14 0.13 0.18 0.12 0.20 0.23 0.19 0.16 0.15 0.12 0.10 0.09 0.09 0.11 0.09 0.07 0.06 0.07 0.08 0.08 0.08 0.10 0.10 0.13 0.13 0.18 0.22 0.28 0.33 0.33 0.27 0.24 0.21
0.41 0.25 0.18 0.17 0.16 0.16 0.15 0.15 0.13 0.14 0.14 0.14 0.15 0.12 0.19 0.22 0.21 0.17 0.18 0.20 0.23 0.22 0.21 0.20 0.17 0.12 0.11 0.11 0.11 0.08 0.10 0.10 0.11 0.15 0.19 0.26 0.25 0.31 0.39 0.40 0.34 0.32 0.28
0.52 0.33 0.25 0.26 0.22 0.23 0.23 0.20 0.14 0.14 0.13 0.14 0.18 0.17 0.19 0.18 0.18 0.17 0.18 0.21 0.23 0.29 0.35 0.34 0.29 0.21 0.16 0.14 0.11 0.12 0.13 0.11 0.13 0.19 0.22 0.25 0.25 0.33 0.44 0.47 0.43 0.41 0.38
0.57 0.42 0.36 0.39 0.25 0.24 0.25 0.25 0.22 0.20 0.24 0.28 0.25 0.22 0.19 0.20 0.22 0.24 0.25 0.28 0.26 0.29 0.34 0.38 0.35 0.27 0.19 0.16 0.16 0.18 0.19 0.17 0.17 0.23 0.28 0.34 0.34 0.36 0.47 0.52 0.52 0.51 0.50
0.73 0.61 0.55 0.41 0.40 0.35 0.31 0.30 0.27 0.29 0.32 0.37 0.38 0.37 0.30 0.31 0.31 0.31 0.38 0.43 0.39 0.36 0.35 0.36 0.36 0.33 0.28 0.25 0.27 0.28 0.27 0.30 0.34 0.35 0.32 0.39 0.47 0.49 0.55 0.53 0.52 0.52 0.52
0.93 1.00 0.89 0.48 0.47 0.49 0.46 0.46 0.37 0.39 0.43 0.45 0.50 0.58 0.54 0.51 0.48 0.51 0.58 0.61 0.63 0.59 0.58 0.61 0.56 0.51 0.47 0.41 0.38 0.34 0.32 0.34 0.35 0.40 0.40 0.42 0.50 0.55 0.57 0.53 0.51 0.52 0.52
1.37 1.57 1.27 0.80 0.63 0.61 0.58 0.62 0.62 0.68 0.77 0.82 0.86 0.87 0.79 0.74 0.76 0.84 0.91 0.96 0.97 0.94 0.91 0.85 0.83 0.76 0.76 0.68 0.55 0.45 0.39 0.37 0.42 0.40 0.37 0.37 0.39 0.48 0.50 0.48 0.46 0.46 0.45
1.88 2.23 1.79 1.19 0.99 0.94 0.92 0.87 0.95 1.07 1.26 1.42 1.40 1.29 1.25 1.22 1.20 1.22 1.23 1.30 1.30 1.30 1.23 1.15 1.06 0.91 0.83 0.72 0.57 0.48 0.44 0.40 0.38 0.36 0.31 0.28 0.28 0.30 0.31 0.32 0.33 0.34 0.35
2.06 2.15 1.93 1.61 1.41 1.32 1.34 1.35 1.48 1.65 1.79 1.94 2.01 1.98 1.98 1.97 1.88 1.82 1.79 1.73 1.61 1.53 1.42 1.27 1.11 0.98 0.86 0.71 0.60 0.50 0.39 0.31 0.28 0.26 0.24 0.21 0.21 0.22 0.22 0.23 0.26 0.28 0.30
2.06 2.01 2.04 2.01 1.94 1.79 1.89 2.08 2.33 2.54 2.62 2.77 2.98 3.10 3.07 2.90 2.66 2.48 2.29 2.02 1.77 1.62 1.50 1.34 1.15 1.00 0.86 0.71 0.61 0.55 0.43 0.31 0.23 0.17 0.17 0.17 0.16 0.17 0.17 0.16 0.18 0.20 0.20
1.98 2.09 2.16 2.35 2.35 2.24 2.51 2.88 3.22 3.46 3.52 3.58 3.61 3.64 3.52 3.21 2.94 2.69 2.36 2.07 1.88 1.73 1.56 1.40 1.19 1.04 0.85 0.65 0.52 0.50 0.46 0.37 0.25 0.15 0.10 0.08 0.08 0.08 0.09 0.08 0.09 0.09 0.10
1.73 1.91 1.99 2.24 2.50 2.74 3.03 3.41 3.84 4.11 4.24 4.19 3.92 3.64 3.28 2.94 2.62 2.29 2.08 1.94 1.79 1.63 1.48 1.26 1.01 0.83 0.69 0.56 0.47 0.41 0.36 0.30 0.26 0.19 0.12 0.08 0.07 0.07 0.07 0.07 0.07 0.07 0.07
1.49 1.67 1.82 2.01 2.37 2.92 3.51 3.96 4.33 4.57 4.46 4.08 3.65 3.12 2.74 2.43 2.15 1.90 1.72 1.63 1.54 1.34 1.11 0.86 0.66 0.55 0.46 0.39 0.32 0.28 0.26 0.22 0.19 0.20 0.17 0.11 0.08 0.07 0.06 0.06 0.07 0.07 0.08
1.13 1.36 1.63 1.90 2.21 2.73 3.27 3.79 4.13 4.29 4.16 3.75 3.17 2.65 2.30 1.99 1.72 1.48 1.22 1.04 0.89 0.73 0.55 0.43 0.36 0.32 0.29 0.25 0.20 0.18 0.17 0.17 0.16 0.16 0.16 0.11 0.08 0.06 0.06 0.05 0.05 0.05 0.05